DW9920 Weather Reports


Display with metric or nautical units.
time (UTC)temp
F
wind
direction
speed
MPH
gust
MPH
rain 1hr
in
rain 24hr
in
rain mn
in
humidity
%
barometer
mb
20260508173010 64 152 2.0 8.0 0.00 0.00 0.00 43 1012.4
20260508171509 64 121 2.0 7.0 0.00 0.00 0.00 41 1012.6
20260508170011 63 207 1.0 6.0 0.00 0.00 0.00 43 1013.1
20260508164504 63 142 0.0 8.0 0.00 0.00 0.00 45 1013.5
20260508163001 61 188 3.0 7.0 0.00 0.00 0.00 45 1013.8
20260508161600 62 245 0.0 4.0 0.00 0.00 0.00 45 1013.9
20260508161500 62 255 1.0 4.0 0.00 0.00 0.00 44 1013.9
20260508160057 61 289 1.0 6.0 0.00 0.00 0.00 53 1014.1
20260508154556 59 101 0.0 7.0 0.00 0.00 0.00 59 1014.3
20260508153053 59 25 2.0 7.0 0.00 0.00 0.00 57 1014.4
20260508151559 58 271 0.0 3.0 0.00 0.00 0.00 60 1014.7
20260508150059 57 160 1.0 6.0 0.00 0.00 0.00 66 1014.7
20260508144603 54 169 0.0 3.0 0.00 0.00 0.00 72 1014.7
20260508143040 53 173 0.0 2.0 0.00 0.00 0.00 71 1014.7
20260508141537 49 249 0.0 2.0 0.00 0.00 0.00 57 1014.7
20260508140029 44 122 0.0 2.0 0.00 0.00 0.00 32 1014.7
20260508134535 43 174 0.0 3.0 0.00 0.00 0.00 34 1014.8
20260508133031 42 132 0.0 1.0 0.00 0.00 0.00 36 1014.9
20260508131524 40 138 0.0 2.0 0.00 0.00 0.00 37 1014.9
20260508130023 39 210 0.0 2.0 0.00 0.00 0.00 38 1014.9
20260508124520 38 215 0.0 2.0 0.00 0.00 0.00 39 1014.7
20260508123020 37 186 0.0 1.0 0.00 0.00 0.00 39 1014.7
20260508121520 36 131 0.0 1.0 0.00 0.00 0.00 40 1014.7
20260508120016 35 167 0.0 0.0 0.00 0.00 0.00 41 1014.5
20260508114515 34 141 0.0 1.0 0.00 0.00 0.00 42 1014.3
20260508113014 34 152 0.0 1.0 0.00 0.00 0.00 42 1014.2
20260508111514 33 117 0.0 0.0 0.00 0.00 0.00 43 1014.2
20260508110025 33 111 0.0 1.0 0.00 0.00 0.00 43 1014.0
20260508104509 33 240 0.0 0.0 0.00 0.00 0.00 43 1013.9
20260508103008 33 124 0.0 0.0 0.00 0.00 0.00 43 1013.7
20260508101505 32 124 0.0 0.0 0.00 0.00 0.00 44 1013.5
20260508100004 33 124 0.0 0.0 0.00 0.00 0.00 43 1013.4
20260508094501 33 124 0.0 0.0 0.00 0.00 0.00 43 1013.5
20260508093100 33 124 0.0 0.0 0.00 0.00 0.00 43 1013.4
20260508091610 34 124 0.0 0.0 0.00 0.00 0.00 43 1013.4
20260508090109 34 124 0.0 0.0 0.00 0.00 0.00 42 1013.2
20260508084555 34 124 0.0 1.0 0.00 0.00 0.00 42 1013.3
20260508083052 34 131 0.0 0.0 0.00 0.00 0.00 42 1013.0
20260508081601 35 131 0.0 0.0 0.00 0.00 0.00 42 1012.9
20260508080049 35 131 0.0 1.0 0.00 0.00 0.00 42 1012.9
20260508074549 35 124 0.0 0.0 0.00 0.00 0.00 42 1012.7
20260508073053 35 124 0.0 0.0 0.00 0.00 0.00 42 1012.7
20260508071554 36 124 0.0 1.0 0.00 0.00 0.00 42 1012.8
20260508070045 36 124 0.0 0.0 0.00 0.00 0.00 42 1012.6
20260508064541 36 124 0.0 0.0 0.00 0.00 0.00 42 1012.4
20260508063039 37 124 0.0 0.0 0.00 0.00 0.00 42 1012.5
20260508061538 37 124 0.0 0.0 0.00 0.00 0.00 41 1012.5
20260508060036 38 124 0.0 0.0 0.00 0.00 0.00 41 1012.7
20260508054534 38 131 0.0 0.0 0.00 0.00 0.00 44 1012.8
20260508053054 38 131 0.0 0.0 0.00 0.00 0.00 44 1012.8
20260508051529 39 131 0.0 0.0 0.00 0.00 0.00 43 1012.7
20260508050025 40 131 0.0 0.0 0.00 0.00 0.00 46 1012.5
20260508044523 40 131 0.0 0.0 0.00 0.00 0.00 46 1012.3
20260508043021 41 137 0.0 1.0 0.00 0.00 0.00 49 1012.1
20260508041524 42 131 0.0 1.0 0.00 0.00 0.00 50 1011.8
20260508040012 43 115 0.0 2.0 0.00 0.00 0.00 47 1011.7
20260508034512 43 116 1.0 1.0 0.00 0.00 0.00 47 1011.8
20260508033010 43 117 0.0 2.0 0.00 0.00 0.00 56 1011.8
20260508031509 43 134 0.0 0.0 0.00 0.00 0.00 54 1011.7
20260508030011 44 124 0.0 0.0 0.00 0.00 0.00 61 1011.5
20260508024507 44 148 0.0 1.0 0.00 0.00 0.00 64 1011.6
20260508023001 45 82 0.0 0.0 0.00 0.00 0.00 70 1011.2
20260508021559 46 342 0.0 0.0 0.00 0.00 0.00 72 1011.0
20260508020056 47 25 0.0 1.0 0.00 0.00 0.00 75 1010.8
20260508014554 49 5 0.0 1.0 0.00 0.00 0.00 76 1010.5
20260508013052 50 296 0.0 2.0 0.00 0.00 0.00 71 1010.2
20260508011556 50 326 1.0 2.0 0.00 0.00 0.00 73 1010.0
20260508010048 51 352 0.0 4.0 0.00 0.00 0.00 72 1009.9
20260508004555 51 297 0.0 1.0 0.00 0.00 0.00 75 1009.7
20260508003047 52 198 0.0 1.0 0.00 0.00 0.00 74 1009.6
20260508001550 54 324 0.0 1.0 0.00 0.00 0.00 68 1009.4
20260508000046 55 335 0.0 3.0 0.00 0.00 0.00 62 1009.3
20260507234546 56 19 1.0 5.0 0.00 0.00 0.00 60 1009.2
20260507233058 58 355 1.0 6.0 0.00 0.00 0.00 59 1009.1
20260507231544 60 316 0.0 4.0 0.00 0.00 0.00 59 1009.1
20260507230044 60 25 0.0 2.0 0.00 0.00 0.00 60 1009.0
20260507224553 58 164 0.0 7.0 0.00 0.00 0.00 62 1009.0
20260507223043 58 226 0.0 4.0 0.00 0.00 0.00 64 1008.9
20260507221542 59 200 0.0 9.0 0.00 0.00 0.00 61 1008.9
20260507220041 59 41 0.0 3.0 0.00 0.00 0.00 66 1008.7
20260507214541 57 222 0.0 4.0 0.00 0.00 0.00 67 1008.5
20260507213044 59 29 0.0 6.0 0.00 0.00 0.00 65 1008.4
20260507211538 60 319 0.0 2.0 0.00 0.00 0.00 65 1008.3
20260507210045 59 180 3.0 6.0 0.00 0.00 0.00 63 1008.4
20260507204535 57 20 3.0 6.0 0.00 0.00 0.00 65 1008.3
20260507203041 59 217 0.0 4.0 0.00 0.00 0.00 65 1008.2
20260507201634 58 30 0.0 3.0 0.00 0.00 0.00 66 1008.4
20260507200034 58 316 2.0 5.0 0.00 0.00 0.00 65 1008.5
20260507194554 58 162 1.0 6.0 0.00 0.00 0.00 65 1008.6
20260507193028 56 47 1.0 3.0 0.00 0.00 0.00 70 1008.9
20260507191531 55 162 0.0 3.0 0.00 0.00 0.00 71 1009.1
20260507190023 55 41 4.0 6.0 0.00 0.00 0.00 70 1009.0
20260507184523 56 98 1.0 3.0 0.00 0.00 0.00 68 1009.1
20260507183034 55 131 0.0 3.0 0.00 0.00 0.00 69 1009.2
20260507181519 54 326 2.0 5.0 0.00 0.00 0.00 70 1009.5
20260507180028 54 75 1.0 4.0 0.00 0.00 0.00 72 1009.6
20260507174517 54 340 2.0 4.0 0.00 0.00 0.00 72 1009.4